User: anonymous   Login
Location: Unspecified
(0.0000°N, 0.0000°E)
Time: 22:22:56
(UTC+00:00)
Language:

Landsat 7 - Orbit

View from above orbital plane
View from above orbital plane
View from above satellite
View from above satellite

Ground track
Ground track

The orbit data is extracted from the following two-line orbital elements,

1 25682U 99020A   15029.28615976  .00000248  00000-0  65115-4 0   249
2 25682 098.2116 100.9536 0001138 083.6677 276.4643 14.57101232839914
Epoch (UTC): 29 January 2015 06:52:04
Eccentricity: 0.0001138
inclination: 98.2116°
perigee height: 702 km
apogee height: 703 km
right ascension of ascending node: 100.9536°
argument of perigee: 83.6677°
revolutions per day: 14.57101232
mean anomaly at epoch: 276.4643°
orbit number at epoch: 83991

The dashed part of the orbit path shows where the satellite is in the earth's shadow,  

DLR